Temp
51 50 51 51 51 50 48 54 43 57 58 42 46 40 44 45 46 49 44 42 35 31 34 33 33 40 54 61 60 52 57 49 38 42 57 61 57 52 51 42 39 46 43 45
51 50 50 50 51 50 57 53 54 58 55 37 40 46 44 47 44 45 42 36 36 36 32 29 31 43 53 56 56 52 55 45 35 35 48 53 49 53 52 47 47 41 39 43
50 50 50 50 50 50 53 46 37 52 55 49 43 41 42 41 48 44 44 37 36 36 33 33 32 37 46 54 53 49 53 47 42 37 43 49 44 47 51 49 41 42 45 50
50 50 50 50 50 50 52 45 41 46 39 42 42 44 44 40 36 44 45 37 41 36 31 32 32 36 43 50 49 52 51 40 42 46 50 51 48 47 48 45 47 41 47 48
50 50 50 50 50 49 53 35 46 49 49 44 42 40 41 40 41 38 37 40 44 44 39 37 32 38 40 36 44 45 49 42 47 43 49 50 46 49 49 49 49 50 52 44
49 50 50 50 50 49 52 57 55 50 43 44 43 40 40 40 45 46 48 45 44 42 42 46 45 50 49 48 45 40 40 43 42 35 46 46 39 46 49 51 48 47 38 43
49 50 49 49 50 49 53 57 55 49 41 46 44 43 45 44 46 42 48 48 43 49 53 54 55 51 52 51 51 52 45 44 45 37 40 30 45 55 54 49 45 45 42 41
49 49 49 49 49 50 51 57 50 48 37 47 44 43 44 48 49 48 47 49 51 54 52 44 43 43 42 48 50 50 52 48 41 37 38 42 43 48 47 46 36 46 43 40
49 49 49 49 49 50 51 56 53 47 40 44 46 44 45 44 45 46 48 54 55 53 49 44 37 34 39 38 45 53 50 51 46 41 34 28 36 49 54 54 32 42 44 39
49 49 48 49 49 49 48 44 49 49 39 49 48 44 42 48 46 44 48 47 47 52 43 38 37 37 45 37 37 39 42 43 38 38 38 37 35 43 51 35 29 38 41 41
48 49 48 49 49 49 49 48 53 47 41 48 50 50 45 47 48 41 47 45 45 41 37 36 36 37 41 40 44 40 38 35 36 39 36 28 34 46 34 33 35 36 36 39
48 48 48 48 48 49 48 42 50 48 43 47 52 53 54 52 52 46 49 43 43 44 37 37 38 36 42 40 32 47 35 37 34 31 29 33 35 34 35 39 37 36 37 38
48 48 48 48 48 49 47 43 45 41 37 43 48 50 56 59 56 57 45 51 49 46 49 38 39 34 44 34 36 40 40 47 35 33 33 34 36 38 39 39 37 38 39 40
47 48 48 47 48 48 48 42 44 41 39 36 45 58 53 58 57 55 54 52 53 51 51 40 39 39 48 40 42 38 42 42 32 32 34 36 36 37 37 36 39 40 42 41
47 47 47 47 48 48 49 47 46 46 42 36 43 54 56 56 54 52 53 51 49 49 44 41 39 46 45 47 45 35 42 35 33 29 33 35 33 36 38 36 36 38 40 40
47 47 47 47 47 47 43 34 43 46 44 36 37 51 51 52 53 51 50 51 50 50 44 43 48 50 44 36 35 37 39 38 37 33 36 34 34 35 37 35 37 39 39 40
47 47 47 47 46 44 40 40 46 47 45 36 35 42 46 51 51 52 50 49 48 47 42 43 46 46 45 39 35 34 36 36 35 38 37 34 36 34 37 38 39 39 39 39
47 47 47 47 46 46 42 51 48 47 40 39 35 38 41 49 42 39 48 43 44 45 44 46 43 44 42 33 36 38 36 38 36 36 38 35 34 36 37 40 40 37 35 35
47 47 47 44 41 37 42 47 47 49 43 35 35 35 31 48 41 42 44 43 35 47 38 38 44 40 33 35 39 40 38 38 38 37 36 35 34 34 35 36 35 34 31 31
47 43 37 32 39 47 45 40 36 37 37 38 36 47 35 42 39 37 37 41 37 33 37 43 36 38 37 40 43 42 40 40 40 36 34 35 33 32 32 31 32 31 29 29
42 34 35 44 47 43 38 33 33 34 31 37 40 45 38 47 37 37 42 37 39 31 37 35 33 34 32 37 38 40 40 39 39 40 38 37 36 33 31 30 30 29 27 24
39 42 43 40 37 36 33 33 36 36 36 41 36 41 44 42 47 40 40 34 36 28 41 34 31 28 34 35 35 36 38 37 36 37 34 33 33 33 31 29 27 25 23 21
42 38 35 34 34 30 28 27 32 34 40 39 39 35 40 43 43 37 36 29 30 42 31 32 31 32 34 34 35 34 35 35 34 33 33 32 31 31 29 25 25 24 20 19
35 32 29 30 29 33 37 40 40 43 42 41 39 36 38 37 34 35 30 35 37 29 28 31 30 30 31 33 33 31 27 27 28 27 26 23 21 18 18 18 18 17 16 15
32 32 29 31 36 36 37 38 41 44 45 42 38 38 37 33 32 33 34 29 29 32 33 31 31 30 29 28 27 24 22 22 22 22 20 18 18 18 18 19 19 18 16 16
32 30 29 32 33 31 34 33 35 43 43 45 44 36 32 31 36 30 30 31 30 32 32 31 30 29 28 27 25 23 23 24 23 21 21 20 19 20 20 20 18 18 17 16
29 29 32 32 36 34 34 37 36 44 41 35 40 31 31 39 33 31 38 33 31 32 30 32 31 28 26 24 23 22 23 24 24 23 23 22 23 21 22 21 21 22 20 17
MSLP
1020.21 1020.30 1020.08 1019.97 1020.03 1019.69 1019.66 1017.78 1016.64 1017.26 1017.35 1016.42 1015.21 1014.36 1014.08 1013.52 1013.02 1012.68 1012.39 1012.28 1011.70 1011.11 1009.88 1008.36 1006.49 1002.55 1000.10 999.64 999.81 999.98 1000.07 1000.29 1000.97 1001.21 1000.22 999.83 1000.07 1000.21 1000.71 1000.55 1000.51 1000.03 999.25 998.70
1020.02 1020.21 1019.97 1019.91 1019.95 1019.69 1018.44 1016.94 1016.36 1017.16 1016.99 1015.72 1014.81 1014.48 1013.94 1013.23 1013.04 1012.68 1012.47 1012.52 1012.26 1011.46 1010.02 1008.87 1006.80 1004.19 1002.42 1001.47 1000.84 1000.82 1000.58 1000.75 1001.07 1001.47 1001.00 1000.75 1000.53 1000.57 1001.07 1001.72 1001.47 1000.71 1000.03 999.92
1019.95 1019.89 1020.01 1020.01 1019.66 1019.79 1019.22 1017.89 1016.68 1016.16 1016.22 1016.50 1015.33 1014.69 1013.83 1013.30 1013.28 1013.13 1013.16 1013.03 1012.40 1011.16 1010.08 1009.20 1007.58 1005.67 1004.88 1003.54 1002.86 1002.48 1001.86 1001.29 1001.08 1000.39 999.81 1000.50 1000.80 1001.36 1001.80 1001.78 1001.78 1001.35 1000.81 1000.33
1019.55 1019.86 1019.91 1019.91 1019.66 1019.80 1019.50 1018.08 1017.00 1016.83 1016.02 1015.64 1015.69 1014.97 1014.00 1013.60 1013.79 1013.74 1013.18 1012.61 1011.66 1011.17 1010.27 1009.25 1008.11 1007.10 1006.00 1004.87 1004.47 1003.46 1002.80 1002.36 1002.35 1001.20 1000.51 1000.87 1001.35 1001.82 1002.11 1002.31 1002.55 1002.56 1002.30 1002.73
1019.59 1019.68 1019.65 1019.87 1019.84 1019.68 1018.74 1018.11 1016.47 1016.63 1015.97 1016.01 1015.51 1015.03 1014.32 1013.99 1013.96 1013.87 1013.00 1012.15 1011.53 1010.72 1010.47 1009.93 1009.11 1008.08 1007.23 1007.01 1006.01 1004.89 1004.12 1003.02 1002.55 1002.22 1001.97 1001.91 1002.17 1002.59 1002.90 1003.21 1003.44 1003.37 1003.49 1005.04
1019.20 1019.61 1019.60 1019.73 1019.74 1019.79 1018.17 1017.69 1017.55 1016.68 1016.00 1015.30 1015.03 1015.02 1014.74 1014.13 1013.64 1013.01 1012.81 1012.23 1011.54 1010.50 1010.47 1009.69 1009.14 1008.27 1007.83 1007.06 1006.29 1006.21 1005.31 1004.17 1003.46 1003.52 1003.28 1003.16 1003.32 1003.60 1003.40 1003.82 1005.36 1005.93 1006.84 1007.91
1019.14 1019.43 1019.39 1019.73 1019.67 1019.68 1018.48 1017.61 1017.13 1016.46 1015.58 1015.22 1015.16 1015.12 1014.64 1013.98 1013.57 1013.07 1012.23 1012.02 1011.63 1010.95 1010.28 1008.63 1007.67 1007.66 1006.96 1006.36 1005.94 1005.41 1004.83 1004.65 1003.79 1004.03 1004.16 1003.98 1004.83 1004.72 1004.95 1005.40 1007.31 1008.58 1009.43 1010.06
1018.93 1019.37 1019.23 1019.63 1019.60 1019.68 1019.04 1018.21 1017.92 1016.98 1016.41 1015.49 1015.36 1015.29 1014.66 1013.86 1013.30 1012.73 1012.41 1012.32 1012.13 1011.21 1009.66 1008.52 1007.26 1006.96 1006.88 1006.16 1006.10 1005.68 1005.30 1004.59 1004.57 1004.40 1004.31 1005.73 1006.28 1006.64 1006.76 1006.59 1009.40 1010.28 1010.73 1011.60
1018.85 1018.96 1019.21 1019.50 1019.54 1019.57 1019.56 1018.79 1018.89 1018.37 1017.45 1015.57 1016.04 1015.43 1014.83 1014.05 1013.37 1012.79 1012.46 1012.43 1012.07 1011.27 1009.58 1008.67 1007.79 1007.48 1006.99 1006.31 1005.81 1006.05 1005.87 1005.41 1005.10 1005.42 1005.93 1007.23 1008.86 1008.41 1008.37 1008.21 1010.83 1012.46 1012.55 1012.92
1018.39 1018.80 1019.24 1019.51 1019.54 1019.57 1019.91 1020.05 1019.95 1019.14 1018.13 1016.49 1016.50 1015.72 1015.67 1015.06 1014.36 1013.53 1012.74 1012.86 1012.24 1012.02 1010.79 1009.81 1009.05 1008.23 1007.93 1006.98 1006.57 1006.49 1006.43 1006.47 1006.47 1007.26 1007.84 1010.03 1012.08 1011.15 1009.69 1010.56 1014.54 1014.48 1014.39 1014.46
1018.30 1018.78 1019.17 1019.42 1019.54 1019.62 1019.62 1019.48 1019.66 1019.55 1018.80 1017.23 1016.84 1016.55 1016.20 1015.55 1014.89 1014.51 1014.13 1013.24 1013.11 1013.11 1012.20 1011.90 1011.48 1010.26 1009.37 1008.64 1008.21 1008.25 1008.27 1008.60 1008.55 1009.30 1010.53 1013.02 1014.20 1012.13 1013.37 1015.74 1015.99 1016.05 1016.07 1015.96
1018.20 1018.63 1018.95 1019.29 1019.42 1019.61 1019.76 1019.80 1019.88 1020.30 1019.69 1017.94 1017.67 1017.11 1016.73 1016.49 1016.16 1016.07 1015.02 1014.95 1014.67 1014.43 1013.97 1013.86 1013.22 1011.80 1010.67 1010.05 1009.19 1009.82 1010.37 1011.50 1011.91 1013.73 1015.02 1016.23 1016.70 1016.87 1017.33 1016.98 1017.01 1017.17 1017.02 1017.00
1017.98 1018.49 1018.82 1019.09 1019.34 1019.46 1019.74 1019.75 1020.03 1020.63 1020.17 1018.74 1016.91 1015.40 1015.54 1015.82 1016.28 1016.33 1015.85 1014.83 1015.12 1015.10 1015.28 1015.45 1014.34 1012.84 1011.80 1011.20 1011.11 1011.27 1012.45 1012.62 1013.60 1015.18 1016.58 1017.16 1017.55 1017.96 1018.21 1018.19 1018.19 1018.21 1018.02 1017.73
1017.76 1018.30 1018.56 1018.95 1019.18 1019.33 1019.57 1019.84 1020.14 1020.32 1020.00 1018.34 1016.04 1015.56 1015.63 1015.97 1016.05 1016.19 1016.31 1016.03 1015.84 1015.71 1015.14 1015.25 1014.50 1013.13 1012.55 1012.28 1012.45 1012.94 1013.70 1014.27 1015.53 1016.50 1017.45 1017.92 1018.52 1018.92 1019.01 1019.15 1018.98 1018.59 1018.37 1018.36
1017.57 1018.09 1018.42 1018.77 1018.94 1019.16 1019.23 1019.30 1019.64 1019.80 1019.75 1018.15 1016.32 1015.50 1015.46 1015.88 1016.02 1016.07 1016.26 1016.38 1016.26 1015.68 1015.12 1014.99 1014.31 1013.48 1013.28 1012.94 1013.29 1014.58 1015.36 1016.24 1016.62 1017.43 1018.34 1018.55 1019.43 1019.75 1019.82 1019.82 1019.80 1019.54 1019.11 1018.89
1017.39 1017.80 1018.16 1018.41 1018.66 1018.88 1019.35 1019.15 1019.17 1019.29 1019.57 1019.22 1016.88 1015.92 1015.60 1015.97 1016.00 1016.04 1016.16 1016.22 1016.06 1015.68 1015.45 1014.98 1014.30 1014.02 1014.50 1014.27 1014.38 1016.15 1017.09 1017.88 1018.17 1018.60 1019.08 1019.49 1020.13 1020.44 1020.57 1020.49 1020.45 1020.20 1020.07 1020.07
1017.15 1017.55 1017.87 1018.12 1018.39 1018.49 1018.25 1018.01 1017.51 1018.31 1019.22 1019.23 1017.59 1015.70 1016.23 1016.11 1016.08 1016.07 1016.19 1016.38 1016.28 1016.06 1015.81 1014.94 1014.45 1014.52 1014.99 1015.02 1015.36 1017.07 1017.97 1018.64 1019.06 1019.25 1019.52 1020.00 1020.31 1020.55 1020.86 1020.88 1020.75 1020.87 1021.03 1021.28
1017.06 1017.36 1017.64 1017.87 1017.83 1017.63 1017.84 1017.26 1017.51 1018.29 1018.90 1018.90 1017.58 1016.18 1016.10 1016.47 1016.13 1016.35 1016.43 1016.46 1016.56 1016.05 1015.41 1015.20 1014.85 1014.99 1015.21 1015.60 1016.42 1017.37 1018.39 1018.91 1019.42 1019.76 1020.11 1020.65 1021.20 1021.19 1021.19 1021.08 1021.11 1021.33 1021.82 1022.29
1016.93 1017.28 1017.56 1017.55 1017.53 1017.66 1017.12 1017.58 1018.10 1018.17 1018.69 1018.06 1017.32 1015.97 1015.84 1016.32 1016.47 1016.77 1016.77 1016.79 1016.36 1015.69 1015.58 1015.40 1014.73 1014.65 1015.33 1016.04 1016.43 1017.34 1018.24 1018.70 1019.24 1020.16 1020.71 1021.14 1021.40 1021.68 1021.82 1021.84 1022.00 1022.39 1023.10 1023.58
1016.83 1017.44 1017.41 1017.11 1016.89 1016.93 1017.34 1018.25 1018.34 1018.38 1018.20 1017.91 1016.52 1015.33 1015.67 1016.09 1016.35 1016.43 1016.72 1016.32 1015.74 1015.32 1015.30 1015.32 1015.37 1014.87 1016.49 1016.78 1017.10 1018.09 1018.96 1019.38 1019.65 1019.92 1020.47 1021.06 1021.64 1022.29 1022.76 1023.17 1023.57 1024.07 1024.57 1025.04
1016.73 1016.92 1016.51 1016.02 1016.47 1016.67 1016.96 1017.23 1017.27 1017.26 1017.12 1016.56 1015.58 1014.79 1015.05 1015.41 1015.38 1015.66 1015.95 1015.81 1015.57 1015.15 1014.71 1015.14 1015.28 1015.46 1017.12 1018.16 1018.73 1019.38 1019.86 1020.19 1020.39 1020.65 1021.25 1021.77 1022.13 1022.87 1023.58 1024.31 1024.90 1025.44 1026.04 1026.69
1016.18 1015.81 1015.94 1016.26 1016.16 1016.08 1015.96 1015.68 1015.49 1015.17 1014.22 1014.25 1014.55 1014.34 1014.49 1015.14 1015.26 1015.41 1015.78 1015.68 1015.74 1014.98 1015.04 1015.27 1015.16 1017.03 1018.11 1019.01 1019.77 1020.35 1020.78 1021.18 1021.62 1022.11 1022.72 1023.30 1023.75 1024.17 1024.79 1025.49 1026.27 1026.99 1027.64 1028.09
1015.90 1015.64 1015.45 1015.38 1015.25 1014.66 1013.92 1013.25 1013.10 1012.77 1012.67 1013.53 1013.98 1014.46 1014.96 1015.42 1015.61 1015.79 1015.84 1015.80 1015.31 1015.21 1015.10 1014.79 1016.07 1017.82 1019.02 1019.97 1020.72 1021.44 1022.09 1022.54 1022.95 1023.53 1024.07 1024.58 1025.04 1025.51 1026.15 1026.90 1027.45 1027.90 1028.57 1028.94
1015.60 1015.19 1014.62 1014.26 1013.42 1012.44 1011.52 1010.96 1011.15 1011.50 1012.23 1012.93 1013.79 1014.59 1014.90 1015.60 1015.73 1015.69 1015.61 1015.34 1015.22 1014.96 1014.66 1014.93 1017.00 1018.78 1020.02 1020.92 1021.81 1022.63 1023.45 1024.02 1024.37 1025.02 1025.64 1026.28 1026.90 1027.54 1028.18 1028.53 1028.89 1029.16 1029.50 1029.87
1015.52 1014.68 1013.10 1012.50 1011.98 1011.96 1011.85 1011.74 1011.60 1011.80 1012.27 1012.73 1013.74 1014.56 1014.97 1015.27 1015.39 1015.50 1015.32 1015.38 1014.72 1014.41 1014.57 1016.22 1018.06 1019.78 1021.10 1022.22 1023.13 1024.08 1024.87 1025.47 1025.86 1026.42 1027.00 1027.51 1027.93 1028.32 1028.79 1029.15 1029.38 1029.72 1029.96 1030.09
1015.20 1014.33 1013.11 1012.50 1012.19 1012.36 1012.36 1012.27 1012.14 1012.00 1012.33 1012.83 1012.92 1013.63 1014.14 1014.31 1014.24 1014.78 1014.54 1014.41 1014.16 1014.96 1016.21 1017.77 1019.47 1020.83 1022.04 1023.15 1024.13 1025.02 1025.64 1026.06 1026.58 1027.18 1027.64 1028.06 1028.42 1028.57 1028.92 1029.33 1029.61 1029.82 1029.99 1030.09
1014.82 1013.76 1013.55 1012.88 1012.01 1012.15 1012.58 1012.45 1012.58 1012.31 1012.29 1012.15 1012.20 1012.67 1013.06 1013.52 1013.75 1013.92 1013.71 1014.33 1015.36 1016.52 1017.92 1019.16 1020.39 1021.69 1022.94 1024.02 1024.89 1025.59 1026.03 1026.42 1026.88 1027.38 1027.85 1028.28 1028.56 1028.88 1028.73 1028.79 1029.22 1029.24 1029.69 1029.89
Wind_Speed
4 2 2 5 6 5 8 3 1 4 5 3 3 5 11 8 13 14 10 11 15 12 17 10 7 6 10 6 13 12 11 4 12 19 14 9 14 11 10 5 6 0 5 4
6 3 2 5 5 5 6 2 1 4 5 3 5 9 8 11 17 14 8 9 6 11 7 5 8 3 13 3 3 4 6 5 10 6 9 6 9 7 4 4 3 6 3 4
6 3 2 4 4 5 7 1 0 2 2 1 9 9 8 15 8 6 14 11 7 17 6 9 11 8 15 14 10 10 3 5 8 6 12 14 8 10 7 4 4 1 5 9
6 3 3 5 5 7 7 3 3 2 0 3 7 7 9 13 13 9 15 5 20 16 8 13 15 15 8 13 20 8 6 6 8 5 11 12 11 10 6 4 2 3 9 11
6 4 3 5 4 7 6 3 4 5 2 5 6 1 8 11 13 5 13 18 21 18 19 18 20 16 11 7 11 10 13 5 8 12 10 10 10 6 2 2 3 6 8 11
6 6 4 4 7 9 3 1 2 6 3 3 4 4 8 12 11 6 13 16 16 14 23 24 16 11 8 7 4 6 7 5 5 4 5 7 7 9 6 5 20 13 9 13
9 7 3 4 7 13 5 2 4 2 3 4 5 6 8 10 11 11 13 14 15 15 22 18 4 2 2 5 6 6 4 3 3 4 5 5 7 11 8 17 18 16 14 10
9 8 4 4 6 14 7 1 3 4 4 3 2 7 7 8 6 9 8 13 14 16 15 6 2 5 4 8 10 7 7 4 2 1 5 14 8 9 10 8 10 16 14 13
10 8 6 3 4 9 4 1 4 3 4 4 4 7 3 7 8 6 7 13 9 14 5 5 5 5 8 5 6 6 4 4 1 2 4 3 8 17 14 8 5 16 14 13
10 8 5 3 3 5 5 1 4 3 3 4 5 8 8 7 7 7 8 15 8 12 7 5 5 4 5 5 5 6 5 5 7 2 2 8 12 21 20 4 5 9 11 11
11 10 7 5 3 4 8 2 6 3 3 7 8 6 7 6 6 7 11 7 8 6 7 5 5 4 6 4 7 7 8 6 5 4 2 5 19 9 8 5 7 8 10 10
13 10 8 5 5 4 11 2 5 3 4 6 10 11 13 12 12 7 5 2 6 5 4 5 4 3 3 6 1 11 4 6 5 7 4 4 8 9 8 7 7 9 9 8
14 11 9 5 7 6 6 1 3 3 2 7 8 2 3 5 8 7 7 3 5 4 6 2 3 5 5 5 6 4 3 8 4 6 5 8 8 9 10 10 9 9 10 10
14 12 8 7 8 7 6 2 4 2 1 4 1 4 2 3 4 8 10 8 4 6 5 1 4 4 5 4 5 4 5 5 4 5 7 8 9 9 8 10 10 9 8 9
15 12 9 9 8 7 7 4 6 6 4 3 3 4 3 1 2 4 8 7 7 6 4 2 3 4 5 3 2 3 6 4 3 4 3 7 6 7 8 8 8 8 9 8
15 10 9 8 7 6 1 1 4 8 3 2 4 2 3 1 3 3 6 6 5 6 1 4 4 2 3 4 2 5 6 6 6 4 7 10 8 6 7 6 7 8 9 10
12 11 10 8 7 6 4 2 2 14 5 2 3 2 2 1 3 2 3 4 2 4 3 4 4 1 2 3 3 6 6 5 6 5 6 6 4 5 4 4 5 4 7 8
10 10 8 6 10 6 3 1 16 11 4 2 3 2 4 4 3 2 1 3 3 4 3 1 6 2 2 4 7 7 6 5 5 6 7 8 5 4 3 3 3 4 7 7
10 8 4 1 2 1 3 13 12 3 1 3 3 4 3 4 3 1 3 2 4 3 2 3 4 4 4 4 7 7 8 3 7 5 6 6 5 4 4 4 5 6 6 6
9 4 2 3 4 14 14 2 2 2 2 3 4 4 3 5 3 5 3 3 3 4 5 1 3 5 5 4 6 8 5 3 3 5 6 4 4 5 5 7 7 7 7 7
5 3 3 2 17 3 2 4 4 4 4 5 5 9 5 4 4 4 3 2 2 3 3 3 4 4 6 6 7 6 6 4 5 7 7 5 5 6 6 7 7 7 8 7
4 1 4 3 2 3 5 6 5 7 6 8 6 6 3 3 2 3 3 3 2 5 3 3 4 5 8 8 7 6 6 7 8 8 9 8 8 8 8 8 8 8 8 6
2 3 3 4 4 7 7 11 5 6 6 6 7 7 4 3 3 1 3 4 5 1 4 4 4 8 8 8 8 8 8 8 9 9 9 9 10 9 9 8 7 7 7 6
2 3 6 5 6 7 5 7 7 4 7 11 9 5 3 2 5 2 5 3 3 4 4 2 6 10 9 8 8 8 8 7 9 9 9 9 9 8 8 7 5 5 5 5
4 5 7 8 1 2 3 4 6 6 10 11 8 4 3 3 4 4 2 4 5 5 2 3 8 12 11 9 9 9 8 7 8 8 8 8 7 7 7 5 5 5 3 4
3 4 4 1 5 4 3 4 4 6 9 9 5 5 5 4 4 5 7 4 5 3 4 8 11 11 10 10 9 9 9 9 8 8 8 7 6 5 6 5 4 3 4 3
5 4 3 3 1 4 3 3 3 6 9 4 3 6 5 4 4 5 4 1 3 7 8 8 11 12 11 11 10 10 9 9 9 8 7 6 5 5 5 5 5 4 4 1
Wind_Direction
199 232 293 320 306 282 266 275 287 58 294 234 213 342 335 330 323 317 309 302 286 276 297 291 291 319 160 142 188 214 215 234 170 198 204 259 189 195 208 238 178 283 321 60
192 226 313 323 290 290 298 312 330 131 271 334 357 16 341 345 345 331 326 300 317 295 302 277 244 52 8 177 180 256 180 207 175 176 179 172 179 169 115 85 301 198 221 92
191 198 288 312 307 265 275 45 206 142 178 170 314 3 352 359 22 20 346 297 305 328 343 353 348 41 26 44 27 340 247 197 223 261 171 171 166 138 171 193 211 202 242 341
179 215 273 303 314 233 270 327 241 67 237 122 338 336 352 357 12 358 342 327 355 351 345 331 6 11 9 42 11 22 22 110 74 60 111 141 153 142 156 153 290 297 340 26
189 215 263 290 274 217 264 150 263 167 211 262 282 60 354 352 352 348 328 354 346 338 3 351 336 348 33 26 348 19 338 72 83 91 93 113 113 101 190 229 261 277 294 67
183 215 247 286 229 213 262 118 142 279 139 229 274 49 322 318 328 322 347 345 337 345 347 325 311 312 321 325 9 121 2 355 124 104 93 124 117 46 31 100 45 25 23 1
200 206 237 280 241 227 294 352 299 277 266 273 358 333 320 318 326 313 326 356 344 332 322 307 192 292 300 44 98 329 164 192 308 117 199 156 71 37 38 73 55 34 18 38
192 209 220 277 254 227 286 225 304 309 288 309 233 331 331 304 310 323 339 352 338 323 315 323 233 173 202 76 47 45 14 319 87 175 82 113 92 42 17 337 61 20 14 14
191 200 207 254 255 202 276 323 331 306 283 80 359 311 314 339 345 328 354 356 333 338 295 304 341 35 321 14 117 78 71 310 322 173 145 145 36 5 356 296 94 9 15 11
191 181 195 232 216 179 173 261 289 293 291 328 335 10 342 337 340 311 346 345 349 355 337 329 351 38 308 7 23 15 25 19 18 94 40 91 353 315 310 267 39 14 23 27
188 182 189 209 214 172 210 175 191 251 276 300 302 286 292 324 316 333 356 322 15 354 8 356 5 336 360 313 46 12 13 328 32 346 336 96 355 12 39 345 36 28 31 34
186 193 181 219 233 241 194 179 194 233 276 310 322 288 284 284 294 304 305 318 341 7 332 25 296 301 329 351 44 36 44 23 6 21 53 51 34 60 33 41 57 38 39 39
180 197 187 207 228 231 185 123 136 106 283 277 242 258 27 227 232 250 277 89 357 19 34 323 303 291 346 345 35 39 63 7 57 181 80 67 67 68 55 54 52 40 30 26
178 194 195 217 235 226 216 160 151 131 251 279 293 87 231 43 230 215 234 296 337 302 307 19 292 301 356 344 333 31 8 19 354 91 130 115 72 57 53 43 30 29 40 33
179 195 201 216 223 239 255 210 184 196 249 312 317 248 87 55 191 206 215 238 262 282 293 275 275 330 334 290 320 77 359 11 320 53 29 78 80 62 47 45 36 22 19 31
183 191 210 220 232 267 170 347 200 191 167 263 273 116 156 109 194 190 199 220 247 256 282 279 269 325 319 300 320 92 87 61 18 102 82 90 98 78 53 57 33 29 30 25
180 202 207 231 252 254 183 244 32 162 129 215 261 196 120 226 158 170 183 221 285 278 272 256 285 324 280 269 297 139 106 89 71 84 124 117 45 74 56 41 38 61 48 39
187 216 214 236 278 209 159 296 140 138 112 237 263 213 162 199 175 165 188 207 228 263 274 257 265 196 199 246 127 131 136 140 96 84 78 80 87 50 37 22 28 52 46 35
188 203 209 281 149 194 154 136 151 85 264 209 200 236 155 179 100 92 186 178 236 256 242 245 256 210 224 99 153 166 161 208 128 121 114 125 103 94 48 40 38 55 46 33
171 148 179 212 199 132 104 82 140 164 196 231 242 237 142 192 172 179 196 221 240 220 206 124 261 243 121 103 102 116 125 126 183 171 168 158 110 73 58 62 54 53 48 47
169 193 215 93 149 135 173 150 185 144 202 202 230 210 158 222 188 183 225 220 320 259 140 226 210 221 136 137 118 114 111 100 65 66 75 65 69 108 104 91 81 75 67 59
192 229 98 69 193 163 184 183 172 196 214 156 186 206 158 151 243 198 209 209 201 258 140 237 248 100 138 146 138 127 110 97 89 85 85 82 81 83 90 87 81 74 74 63
225 200 174 190 169 194 204 176 190 187 162 153 161 153 120 148 188 164 190 214 230 278 225 235 50 126 138 140 132 109 95 103 104 98 98 100 95 87 89 89 81 78 65 46
238 206 197 220 182 223 192 202 181 127 144 159 157 132 154 122 179 151 233 182 227 243 239 181 127 144 138 129 126 129 111 105 106 102 94 90 91 88 76 81 87 88 79 60
242 233 212 199 137 59 82 90 109 140 158 151 140 109 169 162 173 203 204 200 231 233 288 100 127 137 137 139 131 128 124 121 118 119 117 116 116 113 104 98 99 100 97 79
262 262 262 31 172 150 162 155 141 160 149 146 181 152 173 186 187 189 210 236 227 109 88 108 131 141 136 133 132 132 135 131 125 123 130 129 135 144 123 123 119 125 122 127
224 215 265 309 15 127 102 150 127 168 165 176 171 162 182 130 199 213 217 283 76 118 116 133 133 139 139 133 132 133 138 137 135 136 138 140 133 147 168 168 150 186 123 147